UAE8VR EPKT-LGAV

Flight info

Callsign UAE8VR
Flight time N/A
Altitude 35000
Route REGTO DCT RAZEC DCT KEKED DCT PERIT DCT NARKA DCT ORA DCT ADUKU DCT BAVMA DCT EVRIK DCT OLMIP DCT EKNAB DCT SODGO DCT OVDOT DCT LOMOS DCT WAK DCT NIKTI DCT KOROS/N0480F320 UT162 AMISI/N0443F240 T162 NEVRA
Aircraft B77W/H-SDE1E2E3FGHIJ2J3J4J5M1RWXY/LB1D1

Departure

Time 2026-04-30 14:11
Airport Katowice Wojciech Korfanty International Airport (EPKT)

Arrival

Time N/A
Airport Athens Eleftherios Venizelos International Airport (LGAV)
Time Latitude Longitude Altitude Speed Heading
2026-04-30 14:03 50.47236 19.06981 1003 ft 0 kts 270°
2026-04-30 14:07 50.47236 19.06975 1006 ft 2 kts 270°
2026-04-30 14:07 50.47236 19.06929 1003 ft 6 kts 270°
2026-04-30 14:07 50.47236 19.06838 1003 ft 10 kts 270°
2026-04-30 14:08 50.47268 19.06631 1008 ft 10 kts 338°
2026-04-30 14:08 50.47339 19.06626 1005 ft 10 kts
2026-04-30 14:08 50.47427 19.06545 1004 ft 10 kts 277°
2026-04-30 14:09 50.47428 19.06426 1001 ft 11 kts 270°
2026-04-30 14:09 50.47428 19.06301 1000 ft 11 kts 270°
2026-04-30 14:09 50.47429 19.06050 997 ft 11 kts 277°
2026-04-30 14:10 50.47484 19.05972 1001 ft 11 kts 348°
2026-04-30 14:10 50.47563 19.05973 1003 ft 11 kts
2026-04-30 14:10 50.47598 19.05989 1002 ft 4 kts 46°
2026-04-30 14:10 50.47603 19.06028 1003 ft 4 kts 88°
2026-04-30 14:11 50.47604 19.06113 1000 ft 24 kts 90°
2026-04-30 14:11 50.47604 19.06867 1004 ft 113 kts 89°
2026-04-30 14:11 50.47598 19.08526 1005 ft 188 kts 91°
2026-04-30 14:11 50.47578 19.10697 1632 ft 196 kts 87°
2026-04-30 14:12 50.47575 19.12813 2640 ft 194 kts 87°
2026-04-30 14:12 50.47587 19.14947 3264 ft 201 kts 85°
2026-04-30 14:12 50.47600 19.17314 3426 ft 230 kts 86°
2026-04-30 14:12 50.47595 19.19871 4026 ft 239 kts 88°
2026-04-30 14:13 50.47566 19.22506 4737 ft 245 kts 87°
2026-04-30 14:13 50.47558 19.25206 5370 ft 257 kts 87°
2026-04-30 14:13 50.47545 19.28042 6089 ft 262 kts 87°
2026-04-30 14:13 50.47514 19.30897 6925 ft 263 kts 92°
2026-04-30 14:14 50.46860 19.33664 7501 ft 278 kts 127°
2026-04-30 14:14 50.45351 19.35515 8256 ft 282 kts 146°
2026-04-30 14:14 50.43659 19.37169 8907 ft 290 kts 143°
2026-04-30 14:14 50.41967 19.38909 9733 ft 292 kts 142°
2026-04-30 14:15 50.40270 19.40671 10516 ft 294 kts 142°
2026-04-30 14:15 50.38535 19.42482 10992 ft 309 kts 142°
2026-04-30 14:15 50.36675 19.44434 11188 ft 334 kts 142°
2026-04-30 14:15 50.34672 19.46537 11389 ft 359 kts 142°
2026-04-30 14:16 50.32534 19.48772 11771 ft 377 kts 142°
2026-04-30 14:16 50.30321 19.51079 12435 ft 387 kts 142°
2026-04-30 14:16 50.28057 19.53433 13274 ft 394 kts 142°
2026-04-30 14:16 50.25761 19.55820 14174 ft 399 kts 142°
2026-04-30 14:17 50.23438 19.58235 14973 ft 403 kts 142°
2026-04-30 14:17 50.21091 19.60676 15816 ft 407 kts 141°
2026-04-30 14:17 50.18721 19.63139 16662 ft 411 kts 141°
2026-04-30 14:17 50.16326 19.65625 17473 ft 416 kts 141°
2026-04-30 14:18 50.13898 19.68142 18255 ft 421 kts 141°
2026-04-30 14:18 50.11445 19.70684 18992 ft 426 kts 141°
2026-04-30 14:18 50.06461 19.75838 20369 ft 434 kts 141°
2026-04-30 14:19 50.01387 19.81070 21752 ft 442 kts 141°
2026-04-30 14:19 49.98812 19.83720 22393 ft 446 kts 141°
2026-04-30 14:19 49.96249 19.86355 23046 ft 450 kts 141°
2026-04-30 14:20 49.93591 19.89084 23694 ft 454 kts 141°
2026-04-30 14:20 49.90945 19.91798 24283 ft 458 kts 141°
2026-04-30 14:20 49.85626 19.97240 25337 ft 464 kts 142°
2026-04-30 14:21 49.82926 19.99997 25849 ft 467 kts 142°
2026-04-30 14:21 49.80203 20.02774 26347 ft 470 kts 142°
2026-04-30 14:21 49.74697 20.08377 27305 ft 477 kts 142°
2026-04-30 14:22 49.71914 20.11204 27773 ft 480 kts 142°
2026-04-30 14:22 49.66291 20.16901 28659 ft 486 kts 142°
2026-04-30 14:22 49.63453 20.19770 29094 ft 489 kts 142°
2026-04-30 14:23 49.57726 20.25547 29842 ft 495 kts 142°
2026-04-30 14:23 49.51950 20.31360 30684 ft 495 kts 143°
2026-04-30 14:24 49.46184 20.37140 31504 ft 495 kts 143°
2026-04-30 14:24 49.43287 20.40041 31867 ft 496 kts 143°
2026-04-30 14:25 49.37479 20.45844 32609 ft 496 kts 143°
2026-04-30 14:25 49.31727 20.51575 33345 ft 496 kts 143°
2026-04-30 14:26 49.25934 20.57330 34010 ft 496 kts 143°
2026-04-30 14:26 49.23035 20.60205 34326 ft 497 kts 143°
2026-04-30 14:26 49.17232 20.65945 34852 ft 497 kts 144°
2026-04-30 14:27 49.14324 20.68817 35094 ft 498 kts 144°
2026-04-30 14:27 49.11413 20.71687 35268 ft 500 kts 144°
2026-04-30 14:27 49.08479 20.74576 35319 ft 504 kts 144°
2026-04-30 14:28 48.99553 20.83338 35344 ft 513 kts 144°
2026-04-30 14:28 48.93513 20.89246 35339 ft 519 kts 144°
2026-04-30 14:29 48.82329 21.00135 35363 ft 523 kts 144°
2026-04-30 14:31 48.65963 21.15970 35340 ft 521 kts 145°
2026-04-30 14:31 48.56832 21.24754 35346 ft 517 kts 145°
2026-04-30 14:32 48.47066 21.31678 35336 ft 521 kts 161°
2026-04-30 14:33 48.40112 21.34747 35328 ft 521 kts 162°
2026-04-30 14:33 48.29725 21.39382 35336 ft 522 kts 162°
2026-04-30 14:34 48.22774 21.42537 35326 ft 522 kts 161°
2026-04-30 14:34 48.15813 21.45694 35317 ft 523 kts 162°
2026-04-30 14:35 48.05363 21.50409 35319 ft 523 kts 162°
2026-04-30 14:36 47.98388 21.53543 35315 ft 523 kts 162°
2026-04-30 14:36 47.91409 21.56670 35322 ft 524 kts 162°
2026-04-30 14:37 47.84434 21.59788 35332 ft 523 kts 162°
2026-04-30 14:37 47.77455 21.62897 35300 ft 523 kts 162°
2026-04-30 14:38 47.70471 21.65988 35298 ft 523 kts 162°
2026-04-30 14:38 47.63494 21.69065 35286 ft 523 kts 162°
2026-04-30 14:39 47.56521 21.72135 35296 ft 523 kts 162°
2026-04-30 14:39 47.49553 21.75195 35292 ft 523 kts 162°
2026-04-30 14:40 47.39085 21.79777 35289 ft 523 kts 163°
2026-04-30 14:40 47.32108 21.82820 35288 ft 523 kts 163°
2026-04-30 14:41 47.25127 21.85857 35280 ft 523 kts 163°
2026-04-30 14:41 47.18190 21.88862 35276 ft 523 kts 163°
2026-04-30 14:42 47.11154 21.91899 35285 ft 523 kts 163°
2026-04-30 14:42 47.04209 21.94889 35271 ft 524 kts 163°
2026-04-30 14:43 46.97213 21.97896 35266 ft 525 kts 163°
2026-04-30 14:43 46.90201 22.00902 35254 ft 525 kts 163°
2026-04-30 14:44 46.83186 22.03900 35259 ft 525 kts 163°
2026-04-30 14:44 46.76168 22.06892 35259 ft 526 kts 163°
2026-04-30 14:45 46.69145 22.09878 35260 ft 526 kts 163°
2026-04-30 14:45 46.62107 22.12862 35251 ft 527 kts 163°
2026-04-30 14:46 46.55068 22.15839 35249 ft 527 kts 163°
2026-04-30 14:46 46.49215 22.18307 35241 ft 527 kts 163°
2026-04-30 14:47 46.40991 22.21768 35246 ft 527 kts 164°
2026-04-30 14:47 46.33946 22.24722 35246 ft 527 kts 164°
2026-04-30 14:48 46.26909 22.27666 35244 ft 526 kts 164°
2026-04-30 14:48 46.19870 22.30602 35236 ft 526 kts 164°
2026-04-30 14:49 46.12835 22.33530 35244 ft 526 kts 164°
2026-04-30 14:49 46.05797 22.36451 35263 ft 526 kts 165°
2026-04-30 14:50 45.95245 22.40815 35241 ft 526 kts 165°
2026-04-30 14:51 45.84697 22.45161 35252 ft 526 kts 165°
2026-04-30 14:52 45.74188 22.49473 35232 ft 526 kts 165°
2026-04-30 14:52 45.63639 22.53787 35249 ft 525 kts 166°
2026-04-30 14:53 45.53055 22.58095 35242 ft 525 kts 166°
2026-04-30 14:54 45.40193 22.63309 35248 ft 525 kts 166°
2026-04-30 14:55 45.29652 22.67562 35260 ft 525 kts 166°
2026-04-30 14:56 45.15632 22.73198 35264 ft 522 kts 167°
2026-04-30 14:57 45.05147 22.77393 35258 ft 521 kts 167°
2026-04-30 14:58 44.91195 22.82949 35283 ft 521 kts 168°
2026-04-30 14:58 44.80709 22.87106 35282 ft 521 kts 168°
2026-04-30 15:00 44.63279 22.93982 35287 ft 522 kts 168°
2026-04-30 15:01 44.49280 22.99475 35289 ft 522 kts 168°
2026-04-30 15:01 44.38770 23.03580 35287 ft 523 kts 168°
2026-04-30 15:02 44.31777 23.06304 35288 ft 521 kts 169°
2026-04-30 15:03 44.14379 23.13050 35272 ft 517 kts 169°
2026-04-30 15:04 43.97053 23.19726 35286 ft 516 kts 169°
2026-04-30 15:06 43.79796 23.26516 35295 ft 516 kts 169°
2026-04-30 15:07 43.65997 23.31970 35277 ft 515 kts 170°
2026-04-30 15:08 43.52217 23.37374 35276 ft 515 kts 170°
2026-04-30 15:09 43.35015 23.44087 35270 ft 514 kts 171°
2026-04-30 15:10 43.21277 23.49420 35249 ft 512 kts 171°
2026-04-30 15:11 43.00796 23.57324 35253 ft 510 kts 172°
2026-04-30 15:13 42.83729 23.63868 35233 ft 510 kts 172°
2026-04-30 15:14 42.59735 23.73001 35227 ft 514 kts 173°
2026-04-30 15:17 42.28621 23.84744 35213 ft 516 kts 173°
2026-04-30 15:19 42.00968 23.95078 35184 ft 515 kts 173°